FW1440 Anacortes WA US current weather conditions

sailwx.info

Wind from 038 at 1 knots gusting 4

Air temperature 10.6° C
Dewpoint 8.8° C

Last reported at 2019-Nov-17 02:00 UTC.
Time now 2019-Nov-17 02:26 UTC

Location: N 48°31' W 122°38'.
View on Google Maps.

See reports from other nearby stations

  
Tides and Currents Weather Stations Pressure Air Temp Water Temp Dewpoint Dewpoint Depression Visibility Wind Speed Wind Dir Waves Ship Positions
date/time (UTC)wind fromknots sea level pressurealtimeterstation pressurevisibilityair tempwater tempwave heightnotes
2019-Nov-17 02:00 038 1 gusting 4 10.6
2019-Nov-17 01:55 345 1 gusting 4 10.6
2019-Nov-17 01:52 323 1 gusting 6 10.6
2019-Nov-17 01:47 341 1 gusting 6 10.6
2019-Nov-17 01:42 086 1 gusting 3 10.6
2019-Nov-17 01:35 005 1 gusting 6 10.6
2019-Nov-17 01:30 067 0 gusting 6 10.6
2019-Nov-17 01:25 218 0 gusting 5 10.6
2019-Nov-17 01:20 030 1 gusting 5 11.1
2019-Nov-17 01:15 070 1 gusting 6 11.1
2019-Nov-17 01:10 332 1 gusting 6 11.1
2019-Nov-17 01:05 064 1 gusting 6 11.1
2019-Nov-17 01:00 077 1 gusting 5 11.1
2019-Nov-17 00:55 248 1 gusting 5 11.1
2019-Nov-17 00:50 329 1 gusting 5 11.1
2019-Nov-17 00:45 096 1 gusting 6 11.1
2019-Nov-17 00:40 012 1 gusting 6 11.1
2019-Nov-17 00:35 215 1 gusting 6 11.1
2019-Nov-17 00:30 114 1 gusting 4 11.1
2019-Nov-17 00:25 157 1 gusting 4 11.1
2019-Nov-17 00:20 198 1 gusting 6 11.1
2019-Nov-17 00:15 242 1 gusting 6 11.1
2019-Nov-17 00:10 024 1 gusting 4 11.1
2019-Nov-17 00:05 015 1 gusting 4 11.1
2019-Nov-17 00:00 034 1 gusting 4 11.1
2019-Nov-16 23:55 339 1 gusting 5 11.1
2019-Nov-16 23:50 014 1 gusting 6 11.7
2019-Nov-16 23:45 240 1 gusting 6 11.7
2019-Nov-16 23:40 010 1 gusting 4 11.7
2019-Nov-16 23:35 053 1 gusting 3 11.1
2019-Nov-16 23:30 065 0 gusting 3 11.1
2019-Nov-16 23:25 315 0 gusting 3 11.1
2019-Nov-16 23:20 223 0 gusting 3 11.1
2019-Nov-16 23:15 167 0 gusting 3 11.1
2019-Nov-16 23:10 291 0 gusting 2 11.1
2019-Nov-16 23:05 005 11.1
2019-Nov-16 23:00 005 0 gusting 2 11.1
2019-Nov-16 22:55 005 0 gusting 3 11.1
2019-Nov-16 22:50 017 0 gusting 3 11.1
2019-Nov-16 22:45 11.1
2019-Nov-16 22:40 026 1 gusting 3 11.1
2019-Nov-16 22:35 042 1 gusting 5 11.1
2019-Nov-16 22:30 012 0 gusting 5 11.7
2019-Nov-16 22:25 030 0 gusting 3 11.7
2019-Nov-16 22:20 030 1 gusting 3 11.7
2019-Nov-16 22:15 023 2 gusting 5 11.7
2019-Nov-16 22:10 010 2 gusting 5 11.7
2019-Nov-16 22:05 322 1 gusting 6 11.7
2019-Nov-16 22:00 029 1 gusting 6 11.7
2019-Nov-16 21:55 11.1
2019-Nov-16 21:50 030 1 gusting 6 11.1
2019-Nov-16 21:45 355 1 gusting 6 11.1
2019-Nov-16 21:40 033 1 gusting 6 11.1
2019-Nov-16 21:35 005 2 gusting 7 10.6
2019-Nov-16 21:30 082 1 gusting 7 10.6
2019-Nov-16 21:25 017 1 gusting 4 10.6
2019-Nov-16 21:20 010 2 gusting 4 10.6
2019-Nov-16 21:15 030 2 gusting 5 11.1
2019-Nov-16 21:10 10.6
2019-Nov-16 21:05 032 1 gusting 6 11.1
2019-Nov-16 21:00 029 1 gusting 6 11.1
2019-Nov-16 20:55 047 1 gusting 5 11.1
2019-Nov-16 20:50 348 1 gusting 6 11.1
2019-Nov-16 20:45 029 2 gusting 6 11.1
2019-Nov-16 20:40 031 2 gusting 6 10.6
2019-Nov-16 20:35 115 1 gusting 5 10.6
2019-Nov-16 20:30 323 0 gusting 2 10.6
2019-Nov-16 20:25 333 1 gusting 4 11.1
2019-Nov-16 20:20 065 1 gusting 6 11.1
2019-Nov-16 20:15 11.1
2019-Nov-16 20:10 036 1 gusting 4 11.1
2019-Nov-16 20:05 019 1 gusting 3 11.1
2019-Nov-16 20:00 301 1 gusting 6 11.1
2019-Nov-16 19:55 11.1
2019-Nov-16 19:50 302 1 gusting 4 10.6
2019-Nov-16 19:45 232 1 gusting 3 11.1
2019-Nov-16 19:40 340 1 gusting 3 11.1
2019-Nov-16 19:35 296 1 gusting 3 11.1
2019-Nov-16 19:30 309 2 gusting 8 11.1
2019-Nov-16 19:25 005 2 gusting 8 11.1
2019-Nov-16 19:20 039 1 gusting 4 11.1
2019-Nov-16 19:15 341 1 gusting 4 10.6
2019-Nov-16 19:10 032 1 gusting 4 10.6
2019-Nov-16 19:05 022 1 gusting 6 10.6
2019-Nov-16 19:00 327 1 gusting 6 10.6
2019-Nov-16 18:55 324 1 gusting 6 10.6
2019-Nov-16 18:50 103 2 gusting 10 10.6
2019-Nov-16 18:45 305 2 gusting 10 10.6
2019-Nov-16 18:40 167 1 gusting 9 10.6
2019-Nov-16 18:35 126 1 gusting 6 10.6
2019-Nov-16 18:30 323 2 gusting 6 10.6
2019-Nov-16 18:25 314 2 gusting 6 10.6
2019-Nov-16 18:20 225 2 gusting 6 11.1
2019-Nov-16 18:15 026 2 gusting 10 11.1
2019-Nov-16 18:10 325 2 gusting 10 11.1
2019-Nov-16 18:05 355 1 gusting 7 11.1
2019-Nov-16 18:00 275 1 gusting 7 11.1
2019-Nov-16 17:55 011 1 gusting 5 11.1
2019-Nov-16 17:50 355 2 gusting 9 11.1
2019-Nov-16 17:45 240 2 gusting 9 11.1
2019-Nov-16 17:40 331 2 gusting 6 10.6
2019-Nov-16 17:35 302 2 gusting 9 10.6
2019-Nov-16 17:30 061 2 gusting 9 10.6
2019-Nov-16 17:25 069 2 gusting 8 10.6
2019-Nov-16 17:20 074 1 gusting 5 10.6
2019-Nov-16 17:15 014 1 gusting 4 10.6
2019-Nov-16 17:10 355 1 gusting 4 10.6
2019-Nov-16 17:05 337 1 gusting 3 10.6
2019-Nov-16 17:00 355 1 gusting 3 10.0
2019-Nov-16 16:55 337 0 gusting 6 10.0
2019-Nov-16 16:50 189 1 gusting 6 10.0
2019-Nov-16 16:45 338 2 gusting 7 10.0
2019-Nov-16 16:40 123 2 gusting 7 10.0
2019-Nov-16 16:35 134 1 gusting 6 10.0
2019-Nov-16 16:30 122 1 gusting 6 9.4
2019-Nov-16 16:24 279 1 gusting 6 9.4
2019-Nov-16 16:19 346 1 gusting 6 9.4
2019-Nov-16 16:14 320 0 gusting 3 9.4
2019-Nov-16 16:09 038 1 gusting 5 9.4
2019-Nov-16 16:04 016 1 gusting 6 9.4
2019-Nov-16 15:59 024 1 gusting 6 9.4
2019-Nov-16 15:54 355 0 gusting 3 9.4
2019-Nov-16 15:49 016 0 gusting 5 9.4
2019-Nov-16 15:44 305 1 gusting 6 9.4
2019-Nov-16 15:39 005 1 gusting 6 9.4
2019-Nov-16 15:34 259 1 gusting 4 9.4
2019-Nov-16 15:29 119 1 gusting 4 9.4
2019-Nov-16 15:24 030 1 gusting 6 9.4
2019-Nov-16 15:19 272 1 gusting 6 8.9
2019-Nov-16 15:14 338 1 gusting 6 8.9
2019-Nov-16 15:09 220 1 gusting 3 8.9
2019-Nov-16 15:04 115 0 gusting 3 8.9
2019-Nov-16 14:59 029 1 gusting 7 8.9
2019-Nov-16 14:54 321 1 gusting 7 8.9
2019-Nov-16 14:49 327 1 gusting 6 8.3
2019-Nov-16 14:44 8.3
2019-Nov-16 14:39 009 0 gusting 2 8.3
2019-Nov-16 14:34 045 0 gusting 4 8.9
2019-Nov-16 14:29 345 0 gusting 4 8.9
2019-Nov-16 14:24 157 0 gusting 2 8.9
2019-Nov-16 14:19 8.9
2019-Nov-16 14:14 094 1 gusting 4 8.3
2019-Nov-16 14:09 005 0 gusting 4 8.3
2019-Nov-16 14:04 015 0 gusting 2 8.3
2019-Nov-16 13:59 080 0 gusting 1 8.3
2019-Nov-16 13:54 351 8.3
2019-Nov-16 13:49 350 0 gusting 1 8.3
2019-Nov-16 13:44 350 0 gusting 2 8.3
2019-Nov-16 13:39 025 0 gusting 2 8.3
2019-Nov-16 13:34 126 8.3
2019-Nov-16 13:29 126 8.3
2019-Nov-16 13:24 126 8.3
2019-Nov-16 13:19 126 8.3
2019-Nov-16 13:14 126 8.3
2019-Nov-16 13:09 127 8.3
2019-Nov-16 13:04 127 8.3
2019-Nov-16 12:59 123 8.3
2019-Nov-16 12:54 123 8.3
2019-Nov-16 12:49 125 0 gusting 2 8.3
2019-Nov-16 12:44 099 8.3
2019-Nov-16 12:39 078 8.3
2019-Nov-16 12:34 078 8.3
2019-Nov-16 12:29 078 8.3
2019-Nov-16 12:24 078 8.3
2019-Nov-16 12:19 078 8.3
2019-Nov-16 12:14 078 8.3
2019-Nov-16 12:09 078 8.3
2019-Nov-16 12:04 078 8.3
2019-Nov-16 11:59 078 8.3
2019-Nov-16 11:54 078 8.3
2019-Nov-16 11:49 078 8.3
2019-Nov-16 11:44 078 8.3
2019-Nov-16 11:39 078 8.3
2019-Nov-16 11:34 078 8.3
2019-Nov-16 11:29 078 8.3
2019-Nov-16 11:24 078 8.3
2019-Nov-16 11:19 078 8.3
2019-Nov-16 11:14 078 8.3
2019-Nov-16 11:09 078 8.3
2019-Nov-16 11:04 078 8.3
2019-Nov-16 10:59 078 8.3
2019-Nov-16 10:54 078 8.9
2019-Nov-16 10:49 078 8.9
2019-Nov-16 10:44 078 8.9
2019-Nov-16 10:39 078 8.9
2019-Nov-16 10:34 078 8.9
2019-Nov-16 10:29 078 8.9
2019-Nov-16 10:24 078 8.9
2019-Nov-16 10:19 078 8.9
2019-Nov-16 10:14 078 8.9
2019-Nov-16 10:09 078 8.9
2019-Nov-16 10:04 078 8.9
2019-Nov-16 09:59 078 8.9
2019-Nov-16 09:54 078 0 gusting 1 8.9
2019-Nov-16 09:49 078 0 gusting 1 8.9
2019-Nov-16 09:44 078 8.9
2019-Nov-16 09:39 078 8.9
2019-Nov-16 09:34 078 8.9
2019-Nov-16 09:29 078 8.9
2019-Nov-16 09:24 078 8.9
2019-Nov-16 09:19 078 8.9
2019-Nov-16 09:14 078 8.9
2019-Nov-16 09:09 078 0 gusting 1 8.9
2019-Nov-16 09:04 078 0 gusting 2 9.4
2019-Nov-16 08:59 076 0 gusting 2 9.4
2019-Nov-16 08:54 140 0 gusting 2 9.4
2019-Nov-16 08:49 259 0 gusting 1 9.4
2019-Nov-16 08:44 259 0 gusting 1 9.4
2019-Nov-16 08:39 259 0 gusting 1 9.4
2019-Nov-16 08:34 259 0 gusting 1 10.0
2019-Nov-16 08:29 259 0 gusting 1 10.0
2019-Nov-16 08:24 163 10.0
2019-Nov-16 08:19 171 0 gusting 3 10.0
2019-Nov-16 08:14 171 1 gusting 3 10.0
2019-Nov-16 08:09 202 1 gusting 3 10.0
2019-Nov-16 08:04 195 1 gusting 3 10.6
2019-Nov-16 07:59 176 1 gusting 4 10.6
2019-Nov-16 07:54 202 2 gusting 5 10.6
2019-Nov-16 07:49 194 2 gusting 6 10.6
2019-Nov-16 07:44 192 3 gusting 6 10.6
2019-Nov-16 07:39 210 3 gusting 6 10.6
2019-Nov-16 07:34 213 2 gusting 5 10.6
2019-Nov-16 07:29 186 2 gusting 5 10.6
2019-Nov-16 07:24 205 2 gusting 5 10.6
2019-Nov-16 07:19 203 3 gusting 6 10.6
2019-Nov-16 07:14 192 4 gusting 8 10.6
2019-Nov-16 07:09 220 4 gusting 8 10.6
2019-Nov-16 07:04 200 3 gusting 7 10.6
2019-Nov-16 06:59 191 3 gusting 7 10.6
2019-Nov-16 06:54 188 3 gusting 7 10.6
2019-Nov-16 06:49 174 3 gusting 6 10.6
2019-Nov-16 06:44 196 3 gusting 6 10.6
2019-Nov-16 06:39 198 3 gusting 8 10.6
2019-Nov-16 06:34 192 3 gusting 8 10.6
2019-Nov-16 06:29 183 3 gusting 8 10.6
2019-Nov-16 06:24 216 3 gusting 8 10.6
2019-Nov-16 06:19 217 3 gusting 11 10.6
2019-Nov-16 06:14 188 4 gusting 11 10.6
2019-Nov-16 06:09 201 4 gusting 8 10.6
2019-Nov-16 06:04 205 4 gusting 8 10.6
2019-Nov-16 05:59 236 3 gusting 10 10.6
2019-Nov-16 05:54 209 2 gusting 10 10.6
2019-Nov-16 05:49 240 2 gusting 5 10.6
2019-Nov-16 05:44 242 2 gusting 5 10.6
2019-Nov-16 05:39 191 1 gusting 5 10.6
2019-Nov-16 05:34 216 2 gusting 5 10.6
2019-Nov-16 05:29 170 1 gusting 3 10.6
2019-Nov-16 05:24 184 1 gusting 4 10.6
2019-Nov-16 05:19 219 1 gusting 5 10.6
2019-Nov-16 05:14 188 1 gusting 5 10.6
2019-Nov-16 05:09 190 1 gusting 5 10.6
2019-Nov-16 05:04 215 1 gusting 4 10.6
2019-Nov-16 04:59 200 1 gusting 3 10.6
2019-Nov-16 04:54 214 1 gusting 4 10.6
2019-Nov-16 04:49 225 1 gusting 4 10.6
2019-Nov-16 04:44 243 1 gusting 4 10.0
2019-Nov-16 04:39 240 1 gusting 3 10.6
2019-Nov-16 04:34 246 1 gusting 5 10.6
2019-Nov-16 04:29 245 1 gusting 5 10.6
2019-Nov-16 04:24 227 1 gusting 4 10.6
2019-Nov-16 04:19 252 1 gusting 5 10.6
2019-Nov-16 04:14 216 0 gusting 5 10.6
2019-Nov-16 04:09 240 1 gusting 3 10.6
2019-Nov-16 04:04 227 0 gusting 3 10.6
2019-Nov-16 03:59 236 0 gusting 3 10.6
2019-Nov-16 03:54 232 1 gusting 3 10.6
2019-Nov-16 03:49 254 1 gusting 3 10.6
2019-Nov-16 03:44 214 1 gusting 3 10.6
2019-Nov-16 03:39 242 1 gusting 3 10.6
2019-Nov-16 03:34 225 1 gusting 3 10.6
2019-Nov-16 03:29 212 1 gusting 4 10.6
2019-Nov-16 03:24 250 1 gusting 5 10.6
2019-Nov-16 03:19 227 1 gusting 5 10.6
2019-Nov-16 03:14 226 1 gusting 4 10.6
2019-Nov-16 03:09 240 1 gusting 3 10.6
2019-Nov-16 03:04 255 1 gusting 4 10.6
2019-Nov-16 02:58 237 2 gusting 6 11.1
2019-Nov-16 02:53 254 2 gusting 6 11.1
2019-Nov-16 02:48 181 2 gusting 9 11.1
2019-Nov-16 02:43 242 3 gusting 9 11.1
2019-Nov-16 02:38 198 3 gusting 7 11.1
2019-Nov-16 02:33 198 3 gusting 10 11.1
2019-Nov-16 02:28 205 4 gusting 10 11.1
2019-Nov-16 02:23 221 3 gusting 8 11.1
2019-Nov-16 02:18 182 2 gusting 8 11.1
2019-Nov-16 02:13 194 2 gusting 6 11.1
2019-Nov-16 02:08 214 2 gusting 6 11.1
2019-Nov-16 02:03 202 2 gusting 6 11.1
2019-Nov-16 01:58 223 2 gusting 6 11.1
2019-Nov-16 01:53 214 1 gusting 6 11.1
2019-Nov-16 01:48 273 2 gusting 6 11.7
2019-Nov-16 01:43 268 2 gusting 6 11.7
2019-Nov-16 01:38 252 2 gusting 6 11.7
2019-Nov-16 01:33 239 2 gusting 8 11.7
2019-Nov-16 01:28 221 2 gusting 8 11.7
2019-Nov-16 01:23 253 2 gusting 7 11.7
2019-Nov-16 01:18 233 2 gusting 7 11.7
2019-Nov-16 01:13 219 3 gusting 8 11.7
2019-Nov-16 01:08 240 3 gusting 8 11.7
2019-Nov-16 01:03 248 4 gusting 8 11.7
2019-Nov-16 00:58 215 3 gusting 6 11.7
2019-Nov-16 00:53 186 4 gusting 13 12.2
2019-Nov-16 00:43 236 5 gusting 10 12.2
2019-Nov-16 00:38 228 4 gusting 9 12.2
2019-Nov-16 00:33 192 4 gusting 9 11.7
2019-Nov-16 00:28 222 4 gusting 9 11.7
2019-Nov-16 00:23 257 4 gusting 11 11.7
2019-Nov-16 00:18 269 4 gusting 11 11.7
2019-Nov-16 00:13 195 3 gusting 8 11.7
2019-Nov-16 00:08 229 3 gusting 8 12.2
2019-Nov-16 00:03 200 3 gusting 7 12.2
2019-Nov-15 23:58 241 3 gusting 7 12.2
2019-Nov-15 23:53 248 3 gusting 8 12.2
2019-Nov-15 23:48 257 3 gusting 8 12.2
2019-Nov-15 23:43 192 4 gusting 8 12.2
2019-Nov-15 23:38 217 3 gusting 9 12.2
2019-Nov-15 23:33 213 3 gusting 9 12.8
2019-Nov-15 23:28 193 3 gusting 7 12.8
2019-Nov-15 23:23 187 3 gusting 7 12.8
2019-Nov-15 23:18 280 3 gusting 6 12.8
2019-Nov-15 23:13 202 3 gusting 7 12.8
2019-Nov-15 23:08 190 3 gusting 7 12.8
2019-Nov-15 23:03 206 3 gusting 9 12.8
2019-Nov-15 22:58 190 2 gusting 9 12.8
2019-Nov-15 22:53 197 2 gusting 5 12.8
2019-Nov-15 22:48 225 1 gusting 5 12.2
2019-Nov-15 22:43 181 1 gusting 5 12.2
2019-Nov-15 22:38 211 2 gusting 6 12.2
2019-Nov-15 22:33 207 3 gusting 7 12.8
2019-Nov-15 22:28 233 2 gusting 7 12.8
2019-Nov-15 22:23 178 2 gusting 6 12.8
2019-Nov-15 22:18 227 1 gusting 6 12.8
2019-Nov-15 22:13 167 2 gusting 7 12.8
2019-Nov-15 22:08 219 2 gusting 7 13.3
2019-Nov-15 22:03 250 2 gusting 6 13.3
2019-Nov-15 21:58 237 2 gusting 6 13.3
2019-Nov-15 21:53 253 2 gusting 9 12.8
2019-Nov-15 21:48 227 3 gusting 9 12.8
2019-Nov-15 21:43 199 3 gusting 7 12.8
2019-Nov-15 21:38 234 2 gusting 7 12.8
2019-Nov-15 21:33 259 2 gusting 7 12.8
2019-Nov-15 21:28 196 2 gusting 6 12.8
2019-Nov-15 21:23 223 2 gusting 6 12.2
2019-Nov-15 21:18 204 2 gusting 6 12.2
2019-Nov-15 21:13 221 2 gusting 6 12.2
2019-Nov-15 21:08 242 3 gusting 6 12.8
2019-Nov-15 21:03 196 3 gusting 8 12.8
2019-Nov-15 20:58 169 3 gusting 8 12.8
2019-Nov-15 20:53 192 2 gusting 7 12.8
2019-Nov-15 20:48 208 1 gusting 7 12.8
2019-Nov-15 20:43 191 1 gusting 5 12.8
2019-Nov-15 20:38 162 2 gusting 7 12.2
2019-Nov-15 20:33 215 2 gusting 7 12.2
2019-Nov-15 20:28 192 2 gusting 7 12.2
2019-Nov-15 20:23 233 1 gusting 7 12.2
2019-Nov-15 20:18 178 1 gusting 6 12.2
2019-Nov-15 20:13 191 1 gusting 6 11.7
2019-Nov-15 20:08 200 1 gusting 5 11.7
2019-Nov-15 20:03 228 0 gusting 3 11.7
2019-Nov-15 19:58 186 0 gusting 3 11.1
2019-Nov-15 19:53 329 0 gusting 3 11.1
2019-Nov-15 19:48 239 0 gusting 2 11.1
2019-Nov-15 19:43 109 0 gusting 2 11.1
2019-Nov-15 19:38 138 0 gusting 2 10.6
2019-Nov-15 19:33 131 1 gusting 3 10.6
2019-Nov-15 19:28 142 1 gusting 3 10.6
2019-Nov-15 19:23 218 1 gusting 4 10.6
2019-Nov-15 19:18 129 0 gusting 4 10.6
2019-Nov-15 19:13 355 0 gusting 2 10.6
2019-Nov-15 19:08 355 0 gusting 2 10.6
2019-Nov-15 19:03 202 0 gusting 2 10.6
2019-Nov-15 18:58 202 0 gusting 2 10.6
2019-Nov-15 18:53 217 0 gusting 2 10.6
2019-Nov-15 18:48 071 0 gusting 3 10.6
2019-Nov-15 18:43 201 0 gusting 3 10.6
2019-Nov-15 18:38 200 0 gusting 3 10.6
2019-Nov-15 18:33 199 0 gusting 3 10.6
2019-Nov-15 18:28 187 0 gusting 2 10.6
2019-Nov-15 18:23 226 10.6
2019-Nov-15 18:18 226 10.0
2019-Nov-15 18:13 226 10.0
2019-Nov-15 18:08 226 0 gusting 2 10.0
2019-Nov-15 18:03 226 0 gusting 3 10.6
2019-Nov-15 17:58 263 1 gusting 4 10.0
2019-Nov-15 17:53 200 1 gusting 8 10.0
2019-Nov-15 17:48 132 1 gusting 8 10.0
2019-Nov-15 17:43 262 1 gusting 3 10.0
2019-Nov-15 17:38 163 1 gusting 4 10.0
2019-Nov-15 17:33 129 1 gusting 8 10.0
2019-Nov-15 17:28 109 1 gusting 8 10.0
2019-Nov-15 17:23 094 1 gusting 8 10.0
2019-Nov-15 17:18 072 1 gusting 4 10.0
2019-Nov-15 17:13 223 1 gusting 4 10.0
2019-Nov-15 17:08 040 0 gusting 4 10.0
2019-Nov-15 17:03 014 0 gusting 6 10.0
2019-Nov-15 16:58 109 0 gusting 6 10.0
2019-Nov-15 16:53 055 0 gusting 2 9.4
2019-Nov-15 16:48 055 0 gusting 2 9.4
2019-Nov-15 16:43 105 0 gusting 2 9.4
2019-Nov-15 16:38 005 0 gusting 2 9.4
2019-Nov-15 16:33 355 0 gusting 2 9.4
2019-Nov-15 16:28 175 0 gusting 3 9.4
2019-Nov-15 16:23 175 1 gusting 3 9.4
2019-Nov-15 16:18 282 1 gusting 4 9.4
2019-Nov-15 16:13 348 2 gusting 8 9.4
2019-Nov-15 16:08 094 2 gusting 9 9.4
2019-Nov-15 16:03 197 2 gusting 9 9.4
2019-Nov-15 15:58 219 2 gusting 7 9.4
2019-Nov-15 15:53 182 2 gusting 7 9.4
2019-Nov-15 15:48 125 1 gusting 5 9.4
2019-Nov-15 15:43 134 1 gusting 6 9.4
2019-Nov-15 15:38 095 1 gusting 6 9.4
2019-Nov-15 15:33 202 2 gusting 7 9.4
2019-Nov-15 15:28 9.4
2019-Nov-15 15:23 030 1 gusting 4 9.4
2019-Nov-15 15:18 060 0 gusting 4 9.4
2019-Nov-15 15:13 347 1 gusting 4 9.4
2019-Nov-15 15:08 091 1 gusting 6 9.4
2019-Nov-15 15:03 038 1 gusting 8 9.4
2019-Nov-15 14:58 184 2 gusting 8 9.4
2019-Nov-15 14:53 259 2 gusting 6 9.4
2019-Nov-15 14:48 179 2 gusting 13 9.4
2019-Nov-15 14:43 157 2 gusting 13 9.4
2019-Nov-15 14:38 221 1 gusting 7 9.4
2019-Nov-15 14:33 018 1 gusting 7 9.4
2019-Nov-15 14:28 199 1 gusting 6 9.4
2019-Nov-15 14:23 295 1 gusting 8 9.4
2019-Nov-15 14:18 030 3 gusting 10 9.4
2019-Nov-15 14:13 174 2 gusting 10 9.4
2019-Nov-15 14:08 157 2 gusting 8 9.4
2019-Nov-15 14:03 111 2 gusting 9 9.4
2019-Nov-15 13:58 156 2 gusting 9 9.4
2019-Nov-15 13:53 163 3 gusting 10 9.4
2019-Nov-15 13:48 283 3 gusting 10 9.4
2019-Nov-15 13:43 126 3 gusting 10 9.4
2019-Nov-15 13:38 061 3 gusting 10 9.4
2019-Nov-15 13:33 084 3 gusting 10 9.4
2019-Nov-15 13:28 226 3 gusting 9 9.4
2019-Nov-15 13:23 184 2 gusting 9 9.4
2019-Nov-15 13:18 005 2 gusting 9 10.0
2019-Nov-15 13:13 252 2 gusting 6 10.0
2019-Nov-15 13:08 121 2 gusting 6 10.0
2019-Nov-15 13:03 218 1 gusting 6 10.0
2019-Nov-15 12:58 202 2 gusting 8 10.0
2019-Nov-15 12:53 121 2 gusting 9 10.0
2019-Nov-15 12:48 201 1 gusting 9 10.0
2019-Nov-15 12:43 081 1 gusting 6 10.6
2019-Nov-15 12:38 094 1 gusting 6 10.6
2019-Nov-15 12:33 082 2 gusting 7 10.6
2019-Nov-15 12:28 176 1 gusting 7 10.6
2019-Nov-15 12:23 334 1 gusting 4 11.1
2019-Nov-15 12:18 214 1 gusting 4 11.1
2019-Nov-15 12:13 069 2 gusting 5 11.1
2019-Nov-15 12:08 265 2 gusting 5 11.1
2019-Nov-15 12:03 088 1 gusting 5 11.1
2019-Nov-15 11:58 355 1 gusting 5 11.1
2019-Nov-15 11:53 046 1 gusting 4 11.1
2019-Nov-15 11:48 302 1 gusting 5 11.1
2019-Nov-15 11:43 134 1 gusting 6 10.6
2019-Nov-15 11:38 163 1 gusting 6 10.6
2019-Nov-15 11:33 200 0 gusting 4 10.6
2019-Nov-15 11:28 073 0 gusting 2 10.6
2019-Nov-15 11:23 173 0 gusting 2 10.6
2019-Nov-15 11:18 171 0 gusting 2 10.0
2019-Nov-15 11:13 10.0
2019-Nov-15 11:08 010 0 gusting 2 10.0
2019-Nov-15 11:03 005 1 gusting 3 10.0
2019-Nov-15 10:58 009 1 gusting 3 10.0
2019-Nov-15 10:53 054 0 gusting 2 9.4
2019-Nov-15 10:48 059 0 gusting 2 9.4
2019-Nov-15 10:43 035 0 gusting 3 9.4
2019-Nov-15 10:38 021 0 gusting 3 9.4
2019-Nov-15 10:33 347 0 gusting 3 8.9
2019-Nov-15 10:28 065 0 gusting 3 8.9
2019-Nov-15 10:23 337 0 gusting 2 8.9
2019-Nov-15 10:18 257 0 gusting 4 8.3
2019-Nov-15 10:13 142 0 gusting 4 8.3
2019-Nov-15 10:08 355 0 gusting 2 8.3
2019-Nov-15 10:03 122 8.3
2019-Nov-15 09:58 124 8.3
2019-Nov-15 09:53 110 8.3
2019-Nov-15 09:48 110 8.3
2019-Nov-15 09:43 110 8.3
2019-Nov-15 09:38 110 8.3
2019-Nov-15 09:32 110 8.3
2019-Nov-15 09:28 110 0 gusting 1 8.3
2019-Nov-15 09:22 110 0 gusting 2 8.3
2019-Nov-15 09:17 110 0 gusting 2 8.3
2019-Nov-15 09:13 110 8.3
2019-Nov-15 09:08 110 8.3
2019-Nov-15 09:02 110 8.9
2019-Nov-15 08:57 111 8.9
2019-Nov-15 08:52 111 0 gusting 3 8.9
2019-Nov-15 08:47 263 1 gusting 6 8.9
2019-Nov-15 08:42 274 1 gusting 6 8.9
2019-Nov-15 08:37 267 2 gusting 6 8.9
2019-Nov-15 08:32 215 2 gusting 6 8.9
2019-Nov-15 08:27 222 2 gusting 6 8.9
2019-Nov-15 08:22 281 2 gusting 6 8.9
2019-Nov-15 08:17 265 2 gusting 6 9.4
2019-Nov-15 08:12 249 1 gusting 6 9.4
2019-Nov-15 08:07 238 0 gusting 3 9.4
2019-Nov-15 08:02 331 0 gusting 3 9.4
2019-Nov-15 07:57 315 0 gusting 2 9.4
2019-Nov-15 07:52 070 0 gusting 1 9.4
2019-Nov-15 07:47 071 0 gusting 2 9.4
2019-Nov-15 07:42 071 0 gusting 2 9.4
2019-Nov-15 07:37 209 0 gusting 2 9.4
2019-Nov-15 07:32 209 0 gusting 2 9.4
2019-Nov-15 07:27 212 0 gusting 2 9.4
2019-Nov-15 07:22 212 0 gusting 2 9.4
2019-Nov-15 07:17 202 0 gusting 3 9.4
2019-Nov-15 07:12 202 0 gusting 3 9.4
2019-Nov-15 07:07 201 0 gusting 3 9.4
2019-Nov-15 07:02 271 0 gusting 2 9.4
2019-Nov-15 06:57 185 0 gusting 5 9.4
2019-Nov-15 06:52 208 0 gusting 5 9.4
2019-Nov-15 06:47 234 0 gusting 2 9.4
2019-Nov-15 06:42 233 0 gusting 2 9.4
2019-Nov-15 06:37 138 0 gusting 1 9.4
2019-Nov-15 06:32 137 0 gusting 1 9.4
2019-Nov-15 06:27 137 0 gusting 1 9.4
2019-Nov-15 06:22 138 9.4
2019-Nov-15 06:17 138 9.4
2019-Nov-15 06:12 138 9.4
2019-Nov-15 06:07 138 9.4
2019-Nov-15 06:02 138 0 gusting 1 9.4
2019-Nov-15 05:57 138 0 gusting 2 9.4
2019-Nov-15 05:52 138 0 gusting 5 9.4
2019-Nov-15 05:47 163 0 gusting 5 9.4
2019-Nov-15 05:42 208 0 gusting 2 9.4
2019-Nov-15 05:37 079 0 gusting 1 9.4
2019-Nov-15 05:32 194 0 gusting 1 9.4
2019-Nov-15 05:27 194 0 gusting 1 9.4
2019-Nov-15 05:22 194 0 gusting 1 9.4
2019-Nov-15 05:17 172 0 gusting 3 9.4
2019-Nov-15 05:12 168 0 gusting 3 8.9
2019-Nov-15 05:07 159 8.9
2019-Nov-15 05:02 159 8.9
2019-Nov-15 04:57 159 8.9
2019-Nov-15 04:52 159 8.9
2019-Nov-15 04:47 159 8.9
2019-Nov-15 04:42 159 8.9
2019-Nov-15 04:37 159 8.9
2019-Nov-15 04:32 159 8.9
2019-Nov-15 04:27 159 8.9
2019-Nov-15 04:22 159 8.9
2019-Nov-15 04:17 159 8.9
2019-Nov-15 04:12 159 8.9
2019-Nov-15 04:07 159 8.9
2019-Nov-15 04:02 159 8.9
2019-Nov-15 03:57 159 8.9
2019-Nov-15 03:52 159 8.9
2019-Nov-15 03:47 159 8.9
2019-Nov-15 03:42 159 8.9
2019-Nov-15 03:37 159 8.9
2019-Nov-15 03:32 159 8.9
2019-Nov-15 03:27 159 8.9
2019-Nov-15 03:22 158 8.9
2019-Nov-15 03:17 158 8.9
2019-Nov-15 03:12 233 8.9
2019-Nov-15 03:07 233 8.9
2019-Nov-15 03:02 233 8.9
2019-Nov-15 02:57 233 8.9
2019-Nov-15 02:52 233 8.9
2019-Nov-15 02:47 233 8.9
2019-Nov-15 02:42 233 8.9
2019-Nov-15 02:37 233 0 gusting 1 8.9
2019-Nov-15 02:32 233 8.9
2019-Nov-15 02:27 233 8.9
2019-Nov-15 02:22 233 8.9
2019-Nov-15 02:17 233 8.9
2019-Nov-15 02:12 233 8.9
2019-Nov-15 02:07 233 9.4
2019-Nov-15 02:02 233 9.4